Regional Weather Roundup
Issued by NWS Sterling, VA

Home | Current Version | Previous Version | Graphics & Text | Print | Product List | Glossary On
Versions: 1 2 3 4 5 6 7 8 9 10 11 12 13 14 15 16 17 18 19 20 21 22 23 24 25 26 27 28 29 30 31 32 33 34 35 36 37 38 39 40 41 42 43 44 45 46 47 48 49 50
000
ASUS41 KLWX 272310
RWRLWX

REGIONAL WEATHER ROUNDUP
NATIONAL WEATHER SERVICE BALTIMORE MD/WASHINGTON DC
700 PM EDT WED MAY 27 2015

Note: "FAIR" indicates few or no clouds below 12,000 feet
with no significant weather and/or obstructions to visibility.
 TC=TEMPERATURE CELSIUS

 * =Non NWS site. Station does not report precipitation (e.g. rain,
    snow, etc.), thunder, or fog.

DCZ001-MDZ009-015-VAZ040>042-051-053>054-280000-
WASHINGTON METRO

CITY           SKY/WX    TMP DP  RH WIND       PRES   REMARKS
WASHINGTON NAT PTSUNNY   84  67  56 CALM      30.12R
DULLES         PTSUNNY   73  72  94 N3        30.12S
ANDREWS AFB    MOSUNNY   79  68  68 NE6       30.12R
FT BELVOIR     MOSUNNY   82  70  67 E1        30.11S
QUANTICO       PTSUNNY   86  64  47 W6        30.11S
LEESBURG*      LGT RAIN  79  73  83 S14       30.14R
MANASSAS*      SUNNY     82  70  65 NW13      30.12R
GAITHERSBURG*  PTSUNNY   72  68  88 SE5       30.16S

$$

MDZ006>007-011-014-280000-
BALTIMORE METRO

CITY           SKY/WX    TMP DP  RH WIND       PRES   REMARKS
BWI AIRPORT    PTSUNNY   78  66  66 CALM      30.11F
MD SCIENCE CTR   N/A     78  66  66 MISG      30.12S
MARTIN STATE   MOSUNNY   79  70  73 CALM      30.13F
ANNAPOLIS      PTSUNNY   77  67  71 SE8       30.13R

$$

MDZ012-015-019>023-280000-
MARYLAND EASTERN SHORE

CITY           SKY/WX    TMP DP  RH WIND       PRES   REMARKS
OCEAN CITY     SUNNY     71  63  75 SW14G22   30.18F
SALISBURY      SUNNY     77  66  68 S10       30.15S

$$

MDZ017>025-280000-
SOUTHERN MARYLAND

CITY           SKY/WX    TMP DP  RH WIND       PRES   REMARKS
PATUXENT RIVER PTSUNNY   77  69  76 SE10      30.12S THUNDER
ST INIGOES     MOSUNNY   78  69  73 SE14G20   30.12R
LEONARDTOWN*   NOT AVBL

$$

MDZ003>005-280000-
NORTH CENTRAL MARYLAND

CITY           SKY/WX    TMP DP  RH WIND       PRES   REMARKS
FREDERICK*     SUNNY     79  70  73 CALM      30.14F
HAGERSTOWN APT PTSUNNY   80  66  62 S8        30.11F
WESTMINSTER*   NOT AVBL

$$

MDZ501>502-280000-
WESTERN MARYLAND

CITY           SKY/WX    TMP DP  RH WIND       PRES   REMARKS
OAKLAND*       NOT AVBL
CUMBERLAND*    NOT AVBL

$$

VAZ025>031-280000-
SHENANDOAH VALLEY

CITY           SKY/WX    TMP DP  RH WIND       PRES   REMARKS
WINCHESTER*    PTSUNNY   84  61  45 SE7       30.12S
FRONT ROYAL*   FAIR      81  70  69 CALM      30.11S
LURAY*         MOCLDY    82  70  65 CALM      30.13S
NEW MARKET*    MOCLDY    80  68  67 S3        30.10S
STAUNTON*      PTSUNNY   83  65  54 S9        30.16S
WAYNESBORO*    FAIR      78  64  61 S9        30.16S

$$

WVZ021-048>050-054>055-280000-
EASTERN WEST VIRGINIA PANHANDLE

CITY           SKY/WX    TMP DP  RH WIND       PRES   REMARKS
MARTINSBURG    PTSUNNY   79  68  69 SE5       30.12S
PETERSBURG*    PTSUNNY   83  58  43 NW3       30.12R

$$

VAZ036>039-050-280000-
CENTRAL FOOTHILLS

CITY           SKY/WX    TMP DP  RH WIND       PRES   REMARKS
CHARLOTTESVILL MOSUNNY   82  62  50 SW6       30.13R
CULPEPER*      PTSUNNY   81  65  58 CALM      30.12S
ORANGE*        MOSUNNY   82  64  54 CALM      30.14R
GORDONSVILLE*  FAIR      81  65  57 SW5       30.12R
WARRENTON*     PTSUNNY   81  70  70 N3        30.12S

$$

VAZ055>057-280000-
NORTH AND CENTRAL PIEDMONT

CITY           SKY/WX    TMP DP  RH WIND       PRES   REMARKS
FREDERICKSBRG* PTSUNNY   88  67  48 SW9       30.10S HX  90
STAFFORD*      PTSUNNY   86  63  46 SW7       30.15S

$$

NCZ024-NYZ072-PAZ021-071-VAZ022-071-280000-
OTHER REGIONAL OBSERVATIONS

CITY           SKY/WX    TMP DP  RH WIND       PRES   REMARKS
NEW YORK CITY  PTSUNNY   76  62  62 VRB5      30.14R
PHILADELPHIA   CLOUDY    77  69  76 SW7       30.13R THUNDER
PITTSBURGH     PTSUNNY   80  60  50 SW10      30.10S
ROANOKE        PTSUNNY   82  63  52 S12       30.16F
RICHMOND       PTSUNNY   84  66  54 S8        30.13R
RALEIGH        TSTM      73  68  84 CALM      30.18R

$$

ANZ530>537-280000-
MARINE OBSERVATIONS

STATION/POSITION TIME  TEMP    WIND        PRES
                       AIR SEA DIR/SP/G
                 (UTC) (F)     (DEG/KT/KT) (MB)
THOMAS PT LIGHT  2200   78 70  360/  5/  6 1020.4R

$$




USA.gov is the U.S. government's official web portal to all federal, state and local government web resources and services.